Flag for Japan Weather past 2 weeks in Nagasaki, Japan

Now
77 °F

Mild.


Feels Like: 77 °F
Forecast: 74 / 81 °F
Wind: 2 mph from South

Location: Nagasaki

Current Time: Aug 22, 2014 at 1:19:07 AM

Latest Report: Aug 22, 2014 at 12:00 AM


Visibility: N/A

Pressure: 29.90 "Hg

Humidity: 96%

Dew point: 76 °F

Location of NagasakiLocation

Historic Weather in Nagasaki — Graph

°F

Nagasaki temperature yesterday

Maximum temperature yesterday: 84 °F (at 12:00 PM)
Minimum temperature yesterday: 76 °F (at 10:00 PM)
Average temperature yesterday: 80 °F

Past Weeks' High & Low Weather Summary

 TemperatureHumidityPressure
High93 °F (Aug 7, 3:00 PM)97% (Aug 21, 11:00 PM)29.96 "Hg (Aug 21, 11:00 PM)
Low74 °F (Aug 12, 4:00 AM)49% (Aug 7, 3:00 PM)29.26 "Hg (Aug 9, 3:00 PM)
Average81 °F80%29.72 "Hg
* Reported Midnight between Aug 6 and Aug 7 — Midnight between Aug 21 and Aug 22, Nagasaki, Weather by CustomWeather, © 2014

Note: Actual official high and low records may vary slightly from our data, if they occured in-between our weather recording intervals... More about our weather records

Advertising

Nagasaki weather history for previous 24 hours

 ConditionsComfort  
Time TempWeatherWind HumidityBarometerVisibility
12:00 AM
Aug 22
77 °FMild.2 mph96%29.90 "HgN/A
11:00 PM
Aug 21
76 °FMild.2 mph97%29.90 "HgN/A
10:00 PM76 °FMild.1 mph96%29.91 "HgN/A
9:00 PM76 °FOvercast.3 mph95%29.90 "Hg12 mi
8:00 PM77 °FMild.1 mph95%29.89 "HgN/A
7:00 PM77 °FWarm.5 mph94%29.90 "HgN/A
6:00 PM78 °FOvercast.2 mph92%29.88 "Hg16 mi
5:00 PM78 °FWarm.2 mph90%29.88 "HgN/A
4:00 PM78 °FWarm.3 mph89%29.88 "HgN/A
3:00 PM77 °FLight rain. Low clouds.7 mph91%29.89 "Hg9 mi
2:00 PM76 °FMild.10 mph94%29.90 "HgN/A
1:00 PM80 °FWarm.5 mph85%29.89 "HgN/A
12:00 PM84 °FOvercast.5 mph76%29.90 "Hg6 mi
11:00 AM82 °FWarm.6 mph83%29.91 "HgN/A
10:00 AM82 °FWarm.5 mph82%29.90 "HgN/A
9:00 AM81 °FOvercast.8 mph84%29.90 "Hg19 mi
8:00 AM81 °FWarm.3 mph87%29.89 "HgN/A
7:00 AM81 °FWarm.5 mph83%29.89 "HgN/A
6:00 AM81 °FOvercast.5 mph85%29.89 "Hg12 mi
5:00 AM81 °FWarm.5 mph84%29.89 "HgN/A
4:00 AM81 °FWarm.5 mph84%29.89 "HgN/A
3:00 AM81 °FOvercast.6 mph84%29.90 "Hg12 mi
2:00 AM82 °FWarm.5 mph85%29.90 "HgN/A
1:00 AM81 °FWarm.3 mph84%29.91 "HgN/A
Weather by CustomWeather, © 2014

See weather overviewHow to use our weather pages